Pittsfield, IL

4:16 PM CST on January 19, 2017 (GMT -0600)
Pittsfield Penstone Municipal

Weather History for KPPQ - March, 2014

Change the Weather History Date:

Sunday, March 9, 2014

  Actual Average (KUIN) Record (KUIN)
Temperature  
Mean Temperature 40 °F -  
Max Temperature 54 °F 47 °F 75 °F (1986)
Min Temperature 26 °F 27 °F 3 °F (1978)
Degree Days  
Heating Degree Days 25    
Moisture  
Dew Point 30 °F    
Average Humidity 67    
Maximum Humidity 95    
Minimum Humidity 41    
Precipitation  
Precipitation 0.00 in - - ()
Sea Level Pressure  
Sea Level Pressure 30.15 in    
Wind  
Wind Speed 6 mph (SW)    
Max Wind Speed 16 mph    
Max Gust Speed 26 mph    
Visibility 8 miles    
Events      
Averages and records for this station are not official NWS values.
T = Trace of Precipitation, MM = Missing Value Source: NWS Daily Summary

Daily Weather History Graph

Daily Weather History Graph

Search for Another Location

Airport or City:

Trip Planner

Search our weather history database for the weather conditions in past years. The results will help you decide how hot, cold, wet, or windy it might be!

Date:

Astronomy

Mar. 09, 2014 Rise Set
Actual Time 7:23 AM CDT 7:03 PM CDT
Civil Twilight 6:57 AM CDT 7:30 PM CDT
Nautical Twilight 6:25 AM CDT 8:01 PM CDT
Astronomical Twilight 5:54 AM CDT 8:33 PM CDT
Moon 12:57 PM CDT (3/9) 3:49 AM CDT (3/9)
Length of Visible Light 12h 33m
Length of Day
11h 39m
First Quarter, 61% of the Moon is Illuminated
Mar 9
First Quarter
Mar 16
Full
Mar 23
Last Quarter
Mar 30
New
Apr 7
First Quarter

Hourly Weather History & Observations

Time (CDT) Temp. Windchill Dew Point Humidity Pressure Visibility Wind Dir Wind Speed Gust Speed Precip Events Conditions
12:15 AM 33.3 °F - 30.9 °F 91% 30.30 in 2.5 mi Calm Calm - N/A   Overcast
12:35 AM 33.3 °F - 30.7 °F 90% 30.30 in 3.0 mi Calm Calm - N/A   Overcast
12:55 AM 33.8 °F 30.8 °F 28.8 °F 82% 30.30 in 5.0 mi West 3.5 mph - N/A   Haze
1:15 AM 32.0 °F 28.7 °F 28.4 °F 87% 30.30 in 5.0 mi West 3.5 mph - N/A   Scattered Clouds
1:35 AM 31.8 °F - 28.0 °F 86% 30.31 in 4.0 mi Calm Calm - N/A   Clear
1:55 AM 30.9 °F 27.5 °F 27.5 °F 87% 30.32 in 4.0 mi WNW 3.5 mph - N/A   Clear
3:15 AM 31.1 °F 27.7 °F 27.5 °F 87% 30.31 in 4.0 mi WNW 3.5 mph - N/A   Clear
3:35 AM 29.3 °F - 26.6 °F 90% 30.31 in 3.0 mi Calm Calm - N/A   Clear
3:55 AM 29.7 °F - 27.1 °F 90% 30.30 in 4.0 mi Calm Calm - N/A   Clear
4:15 AM 29.7 °F 26.1 °F 27.1 °F 90% 30.30 in 4.0 mi WSW 3.5 mph - N/A   Clear
4:35 AM 29.3 °F - 27.1 °F 92% 30.29 in 3.0 mi Calm Calm - N/A   Clear
4:55 AM 28.9 °F 25.2 °F 26.6 °F 91% 30.29 in 3.0 mi West 3.5 mph - N/A   Clear
5:15 AM 29.1 °F 25.4 °F 26.6 °F 90% 30.29 in 4.0 mi West 3.5 mph - N/A   Clear
5:35 AM 28.4 °F - 26.6 °F 93% 30.29 in 3.0 mi Calm Calm - N/A   Clear
5:55 AM 27.5 °F - 25.7 °F 93% 30.29 in 2.0 mi Calm Calm - N/A   Clear
6:15 AM 27.5 °F - 25.9 °F 94% 30.29 in 2.5 mi Calm Calm - N/A   Clear
6:35 AM 26.6 °F - 24.8 °F 93% 30.29 in 2.5 mi Calm Calm - N/A   Clear
6:55 AM 26.6 °F - 25.2 °F 94% 30.29 in 1.8 mi Calm Calm - N/A   Mist
7:15 AM 26.1 °F - 24.6 °F 94% 30.29 in 2.0 mi Calm Calm - N/A   Clear
7:35 AM 26.6 °F - 25.3 °F 95% 30.30 in 2.0 mi Calm Calm - N/A   Clear
7:55 AM 27.1 °F - 25.7 °F 94% 30.30 in 2.5 mi Calm Calm - N/A   Clear
8:15 AM 28.9 °F - 26.8 °F 92% 30.30 in 4.0 mi Calm Calm - N/A   Clear
8:35 AM 30.6 °F 27.1 °F 27.5 °F 88% 30.30 in 4.0 mi SW 3.5 mph - N/A   Clear
8:55 AM 32.0 °F - 28.4 °F 87% 30.30 in 4.0 mi Calm Calm - N/A   Clear
9:15 AM 33.4 °F 28.1 °F 28.9 °F 84% 30.30 in 5.0 mi SSW 5.8 mph - N/A   Clear
9:35 AM 34.9 °F 29.0 °F 28.8 °F 78% 30.29 in 7.0 mi SSW 6.9 mph - N/A   Clear
9:55 AM 36.0 °F 30.3 °F 28.9 °F 76% 30.29 in 7.0 mi South 6.9 mph - N/A   Clear
10:15 AM 36.5 °F 28.7 °F 28.4 °F 72% 30.28 in 10.0 mi SSW 11.5 mph - N/A   Clear
10:35 AM 37.2 °F 29.6 °F 29.7 °F 74% 30.27 in 10.0 mi South 11.5 mph 17.3 mph N/A   Clear
10:55 AM 37.9 °F 30.0 °F 29.8 °F 73% 30.27 in 10.0 mi SW 12.7 mph - N/A   Clear
11:15 AM 39.2 °F 32.0 °F 31.3 °F 73% 30.26 in 7.0 mi South 11.5 mph - N/A   Clear
11:35 AM 39.6 °F 32.5 °F 30.9 °F 71% 30.24 in 7.0 mi SSW 11.5 mph 18.4 mph N/A   Clear
11:55 AM 41.2 °F 34.1 °F 31.1 °F 67% 30.24 in 10.0 mi SSW 12.7 mph 17.3 mph N/A   Clear
12:15 PM 42.1 °F 35.2 °F 31.1 °F 65% 30.23 in 7.0 mi SW 12.7 mph 18.4 mph N/A   Clear
12:35 PM 43.0 °F 37.2 °F 31.6 °F 64% 30.22 in 10.0 mi SW 10.4 mph 20.7 mph N/A   Clear
12:55 PM 43.9 °F 37.9 °F 30.9 °F 60% 30.20 in 10.0 mi SW 11.5 mph - N/A   Clear
1:15 PM 45.0 °F 38.2 °F 30.7 °F 57% 30.19 in 10.0 mi SW 15.0 mph 18.4 mph N/A   Clear
1:35 PM 46.4 °F 41.1 °F 32.0 °F 57% 30.18 in 10.0 mi SW 11.5 mph - N/A   Clear
1:55 PM 47.1 °F - 31.6 °F 55% 30.16 in 10.0 mi SW 12.7 mph 17.3 mph N/A   Clear
2:15 PM 47.8 °F - 32.0 °F 54% 30.14 in 10.0 mi SSW 13.8 mph 18.4 mph N/A   Clear
2:35 PM 48.4 °F - 31.8 °F 53% 30.12 in 10.0 mi SW 13.8 mph 19.6 mph N/A   Clear
2:55 PM 49.3 °F - 32.0 °F 51% 30.10 in 10.0 mi SW 15.0 mph 21.9 mph N/A   Clear
3:15 PM 50.0 °F - 32.5 °F 51% 30.09 in 10.0 mi SSW 13.8 mph - N/A   Clear
3:35 PM 50.9 °F - 32.7 °F 50% 30.08 in 10.0 mi SSW 13.8 mph - N/A   Clear
3:55 PM 51.8 °F - 31.8 °F 47% 30.07 in 10.0 mi SSW 16.1 mph - N/A   Clear
4:15 PM 52.7 °F - 32.0 °F 45% 30.07 in 10.0 mi SW 10.4 mph 18.4 mph N/A   Clear
4:35 PM 53.1 °F - 32.2 °F 45% 30.05 in 10.0 mi SSW 16.1 mph - N/A   Clear
4:55 PM 53.6 °F - 32.0 °F 44% 30.04 in 10.0 mi SW 11.5 mph 17.3 mph N/A   Clear
5:15 PM 54.0 °F - 31.8 °F 43% 30.03 in 10.0 mi SSW 13.8 mph 18.4 mph N/A   Clear
5:35 PM 54.0 °F - 31.5 °F 42% 30.02 in 10.0 mi SSW 12.7 mph 16.1 mph N/A   Clear
5:55 PM 53.8 °F - 30.4 °F 41% 30.01 in 10.0 mi SSW 12.7 mph - N/A   Clear
6:15 PM 53.6 °F - 30.2 °F 41% 30.00 in 10.0 mi SSW 11.5 mph - N/A   Clear
6:35 PM 52.9 °F - 30.2 °F 42% 29.99 in 10.0 mi SSW 11.5 mph - N/A   Clear
6:55 PM 51.8 °F - 30.2 °F 44% 29.99 in 10.0 mi SSW 10.4 mph - N/A   Clear
7:16 PM 50.2 °F - 30.6 °F 47% 29.99 in 10.0 mi SSW 8.1 mph - N/A   Clear
7:35 PM 49.1 °F - 30.9 °F 50% 29.99 in 10.0 mi SSW 9.2 mph - N/A   Clear
7:55 PM 48.6 °F - 30.6 °F 50% 29.99 in 10.0 mi SSW 9.2 mph - N/A   Clear
8:15 PM 48.4 °F - 30.4 °F 50% 29.99 in 10.0 mi SSW 9.2 mph - N/A   Clear
8:35 PM 47.8 °F - 30.2 °F 50% 29.98 in 10.0 mi SSW 9.2 mph - N/A   Clear
8:55 PM 47.5 °F - 30.4 °F 52% 29.97 in 10.0 mi SSW 9.2 mph - N/A   Clear
9:15 PM 47.1 °F - 30.9 °F 53% 29.97 in 10.0 mi SSW 9.2 mph - N/A   Clear
9:35 PM 48.0 °F - 30.7 °F 51% 29.97 in 10.0 mi SSW 11.5 mph - N/A   Clear
9:55 PM 47.8 °F - 30.4 °F 51% 29.97 in 10.0 mi SSW 11.5 mph - N/A   Clear
10:15 PM 47.7 °F - 30.4 °F 51% 29.98 in 10.0 mi SW 9.2 mph - N/A   Clear
10:35 PM 47.5 °F - 30.2 °F 51% 29.97 in 10.0 mi SW 10.4 mph - N/A   Clear
10:55 PM 47.3 °F - 30.2 °F 52% 29.97 in 10.0 mi SW 12.7 mph 16.1 mph N/A   Clear
11:15 PM 47.3 °F - 30.0 °F 51% 29.96 in 10.0 mi SW 12.7 mph - N/A   Clear
11:35 PM 47.5 °F - 30.2 °F 51% 29.95 in 10.0 mi SW 15.0 mph 19.6 mph N/A   Clear
11:56 PM 48.9 °F - 30.7 °F 50% 29.95 in 10.0 mi SW 15.0 mph 21.9 mph N/A   Clear
12:15 AM 49.1 °F - 30.9 °F 50% 29.95 in 10.0 mi SW 16.1 mph 26.5 mph N/A   Clear
12:35 AM 48.7 °F - 31.1 °F 51% 29.93 in 10.0 mi WSW 16.1 mph 26.5 mph N/A   Clear
12:55 AM 48.6 °F - 31.3 °F 51% 29.93 in 10.0 mi WSW 15.0 mph 21.9 mph N/A   Clear